Погода в Холоне

Израиль     32°00′44″N   34°46′35″E
темп.,
°C
ветер,
м/с
пор.,
м/с
влажн.,
%
обл.,
%
осадки,
мм/ч
давл.,
гПа
погр.,
м
11 апреля, вс
вс1100:00+15з884993 0.2 10161484
03:00+14з6849100 0.3 10161301
06:00+14з674951 0.0 10171161
09:00+15з56442 0.0 10181570
12:00+17зюз774412 0.0 10191843
15:00+17зюз8951100 0.0 10191807
18:00+16з67522 0.0 10191632
21:00+15з56571 0.0 10201011
12 апреля, пн
пн1200:00+14з45595 0.0 1020798
03:00+14з456021 0.0 1019752
06:00+14з345780 0.0 1019648
09:00+15зюз2354100 0.0 10201013
12:00+16з445210 0.0 10201275
15:00+17зсз55510 0.0 10191147
18:00+16сз55510 0.0 10191152
21:00+15ссз34560 0.0 1020783
13 апреля, вт
вт1300:00+14с23600 0.0 1020515
03:00+13всв12620 0.0 1019414
06:00+12юв22670 0.0 1019192
09:00+15всв12560 0.0 1021657
12:00+17ссз54470 0.0 1020896
15:00+18ссз66470 0.0 1019903
18:00+17с77505 0.0 1019749
21:00+16ссв5756100 0.0 1020511
14 апреля, ср
ср1400:00+15св466029 0.0 1020428
03:00+14св34621 0.0 1019275
06:00+13ссв34640 0.0 1019205
09:00+16ссв34510 0.0 1020426
12:00+21ссв222824 0.0 1018541
15:00+20ссз76471 0.0 1017452
18:00+19с77552 0.0 1016421
21:00+17ссв56615 0.0 1017213
15 апреля, чт
чт1500:00+16ссв4565100 0.0 1016182
03:00+16с2368100 0.0 1016128
06:00+15св116775 0.0 101695
09:00+19зсз11505 0.0 1016184
12:00+22сз42430 0.0 1016448
15:00+22ссз55480 0.0 1015397
18:00+21с67550 0.0 1014299
21:00+18с466470 0.0 1015148